TimeMST,TemperatureF,Dew PointF,Humidity,Sea Level PressureIn,VisibilityMPH,Wind Direction,Wind SpeedMPH,Gust SpeedMPH,PrecipitationIn,Events,Conditions,WindDirDegrees,DateUTC
12:53 AM,24.1,14.0,65,30.38,10.0,Calm,Calm,-,N/A,,Clear,0,2012-11-16 07:53:00
1:53 AM,21.9,14.0,72,30.37,10.0,Calm,Calm,-,N/A,,Clear,0,2012-11-16 08:53:00
2:53 AM,23.0,14.0,68,30.35,10.0,NW,4.6,-,N/A,,Clear,320,2012-11-16 09:53:00
3:53 AM,19.9,12.0,71,30.35,10.0,Calm,Calm,-,N/A,,Clear,0,2012-11-16 10:53:00
4:53 AM,19.9,12.0,71,30.34,10.0,Calm,Calm,-,N/A,,Clear,0,2012-11-16 11:53:00
5:53 AM,19.0,12.0,74,30.37,10.0,North,3.5,-,N/A,,Clear,10,2012-11-16 12:53:00
6:53 AM,21.0,12.9,71,30.37,10.0,Calm,Calm,-,N/A,,Clear,0,2012-11-16 13:53:00
7:53 AM,28.0,17.1,63,30.36,10.0,Calm,Calm,-,N/A,,Clear,0,2012-11-16 14:53:00
8:53 AM,33.1,19.9,59,30.35,10.0,NW,4.6,-,N/A,,Clear,310,2012-11-16 15:53:00
9:53 AM,39.9,21.9,49,30.32,10.0,NW,3.5,-,N/A,,Clear,310,2012-11-16 16:53:00
10:53 AM,45.0,24.1,44,30.27,10.0,Variable,4.6,-,N/A,,Clear,0,2012-11-16 17:53:00
11:53 AM,48.9,25.0,39,30.22,10.0,Calm,Calm,-,N/A,,Clear,0,2012-11-16 18:53:00
12:53 PM,52.0,24.1,34,30.17,10.0,East,5.8,-,N/A,,Clear,100,2012-11-16 19:53:00
1:53 PM,55.0,24.1,30,30.13,10.0,East,4.6,-,N/A,,Clear,100,2012-11-16 20:53:00
2:53 PM,57.0,23.0,27,30.12,10.0,ESE,5.8,-,N/A,,Clear,120,2012-11-16 21:53:00
3:53 PM,55.9,23.0,28,30.13,10.0,SE,6.9,-,N/A,,Clear,140,2012-11-16 22:53:00
4:53 PM,50.0,21.9,33,30.14,10.0,Calm,Calm,-,N/A,,Clear,0,2012-11-16 23:53:00
5:53 PM,42.1,19.0,40,30.17,10.0,Calm,Calm,-,N/A,,Clear,0,2012-11-17 00:53:00
6:53 PM,36.0,16.0,44,30.19,10.0,North,4.6,-,N/A,,Clear,360,2012-11-17 01:53:00
7:53 PM,34.0,17.1,50,30.17,10.0,North,3.5,-,N/A,,Clear,360,2012-11-17 02:53:00
8:53 PM,30.9,15.1,52,30.16,10.0,West,3.5,-,N/A,,Clear,260,2012-11-17 03:53:00
9:53 PM,30.9,15.1,52,30.14,10.0,WSW,4.6,-,N/A,,Clear,250,2012-11-17 04:53:00
10:53 PM,28.9,14.0,54,30.12,10.0,WNW,5.8,-,N/A,,Clear,290,2012-11-17 05:53:00
11:53 PM,27.0,14.0,58,30.11,10.0,West,5.8,-,N/A,,Clear,260,2012-11-17 06:53:00